EHI
0 0 0 0 0 0 0 0 0 0 0 0 0 0 0 1 3 6 7 6 6 11 14 15 15 16 14 12 14 17 16 10 6 6 6 5 6 4 1 0 0 0 0 0
0 0 0 0 0 0 0 0 0 0 0 0 0 0 0 1 4 6 8 8 8 11 13 13 14 15 13 12 13 15 13 7 4 5 6 6 5 3 1 0 0 0 0 1
0 0 0 0 0 0 0 0 0 0 0 0 0 0 0 1 4 6 7 8 9 10 10 10 12 13 13 12 12 12 10 6 3 4 6 6 5 3 1 0 0 0 0 1
0 0 0 0 0 0 0 0 0 0 0 0 0 0 0 1 3 5 6 6 8 8 8 9 10 11 13 12 11 10 8 6 4 4 5 5 4 2 1 0 0 0 0 1
0 0 0 0 0 0 0 0 0 0 0 0 0 0 0 0 2 3 4 5 6 8 9 9 10 10 11 12 11 9 8 6 4 3 3 2 1 1 1 0 0 0 0 0
0 0 0 0 0 0 0 0 0 0 0 0 0 0 0 0 0 1 3 4 6 8 9 9 9 10 10 11 10 9 7 5 3 2 2 1 1 2 1 0 0 0 0 0
0 0 0 0 0 0 0 0 0 0 0 0 0 0 0 0 0 1 3 5 6 7 8 8 8 9 9 8 10 9 6 3 2 0 0 0 1 1 1 0 0 0 0 0
0 0 0 0 0 0 0 0 0 0 0 0 0 0 0 0 0 1 4 5 5 6 6 6 6 7 6 7 10 10 7 4 1 0 0 0 0 0 0 0 0 0 0 0
0 0 0 0 0 0 0 0 0 0 0 0 0 0 0 0 0 2 5 5 4 3 4 4 4 4 5 8 9 9 7 5 1 0 0 0 0 0 0 0 0 0 0 0
0 0 0 0 0 0 0 0 0 0 0 0 0 0 0 0 1 3 6 6 4 3 3 3 3 4 6 9 8 7 6 4 1 0 0 0 0 0 0 0 0 0 0 1
0 0 0 0 0 0 0 0 0 0 0 0 0 0 0 1 1 3 6 7 5 4 4 3 3 4 6 7 6 5 4 2 1 1 1 1 1 1 0 0 0 1 1 2
0 0 0 0 0 0 0 0 0 0 0 0 0 0 0 0 1 2 4 6 6 5 4 4 4 4 4 4 4 3 2 1 1 2 2 2 2 2 1 1 1 2 2 2
0 0 0 0 0 0 0 0 0 0 0 0 0 0 0 0 1 2 3 5 6 5 5 6 6 5 4 4 4 3 1 0 1 2 3 3 3 3 3 2 2 2 2 1
0 0 0 0 0 0 0 0 0 0 0 0 0 0 0 0 1 2 4 5 6 6 7 9 10 8 6 6 6 4 2 1 1 2 3 3 3 3 3 3 2 1 1 0
1 0 0 0 0 0 0 0 0 0 0 0 0 0 0 0 0 2 4 6 6 6 7 10 11 10 9 9 8 6 5 4 3 1 1 2 2 2 2 1 1 0 1 1
1 0 0 0 0 0 0 0 0 0 0 0 0 0 0 0 0 1 3 5 5 6 6 6 8 11 13 12 12 11 10 9 6 2 1 1 1 1 1 0 0 1 2 2
1 0 0 0 0 0 0 0 0 0 0 0 0 0 0 0 0 1 2 4 4 5 5 4 6 10 14 15 15 16 14 13 8 3 1 2 3 2 1 1 0 1 2 3
0 0 0 0 0 0 0 0 0 0 0 0 0 0 0 0 0 0 2 4 4 4 4 5 8 12 16 18 19 18 17 15 11 6 4 4 5 4 3 2 1 2 3 3
0 0 0 0 0 0 0 0 0 0 0 0 0 0 0 0 0 0 2 4 5 4 4 7 12 17 20 22 22 19 17 15 11 8 6 5 5 5 5 3 3 3 3 2
0 0 0 0 0 0 0 0 0 0 0 0 0 0 0 0 1 2 4 5 5 6 9 12 17 23 27 28 26 21 16 11 8 6 5 4 5 6 6 4 3 3 1 1
0 0 0 0 0 0 0 0 0 0 0 0 0 0 0 0 1 3 5 7 7 9 13 19 23 27 30 30 27 22 15 8 5 5 6 6 7 7 6 5 3 1 0 0
0 0 0 0 0 0 0 0 0 0 1 0 0 0 0 0 1 2 6 9 11 13 16 21 25 28 29 27 25 20 13 7 5 7 9 9 8 6 5 4 3 2 1 0
0 0 0 0 0 0 0 0 0 1 1 0 0 0 0 0 0 2 7 12 13 13 15 17 20 24 23 21 19 16 11 7 6 9 11 10 8 4 3 3 4 4 2 1
0 0 0 0 0 0 0 0 0 1 0 0 0 0 0 0 1 3 8 13 13 12 11 12 15 17 16 13 13 11 8 7 7 8 9 8 5 3 3 3 4 4 3 1
0 0 0 0 0 0 0 0 0 0 0 0 0 0 0 0 1 4 8 10 10 9 7 7 10 11 9 9 8 7 6 6 5 5 5 4 3 3 3 3 3 3 2 1
0 0 0 0 0 0 0 0 0 0 0 0 0 0 0 0 1 3 5 6 7 7 5 4 5 8 8 8 7 4 4 5 5 3 2 1 1 2 3 3 3 2 1 0
Wind_Speed
8 10 9 5 6 8 8 8 7 3 1 5 6 5 5 6 7 7 7 8 8 8 9 9 10 10 10 9 10 10 9 8 6 5 5 5 5 4 4 4 4 3 3 3
9 12 8 5 5 7 8 8 6 1 2 5 4 5 5 7 7 6 7 8 9 10 10 10 10 10 10 10 10 10 10 8 7 5 3 3 4 3 3 3 4 3 3 2
14 5 2 6 7 8 8 8 6 3 4 5 6 7 7 7 7 7 8 8 9 11 11 11 11 10 10 10 10 8 8 8 7 6 5 5 4 4 4 4 4 3 2 2
12 9 7 9 8 8 7 3 5 5 7 4 6 6 6 8 9 10 10 10 11 11 12 12 12 12 11 10 9 9 8 7 7 6 5 5 4 4 4 3 3 3 2 2
10 7 9 10 6 6 2 1 4 6 8 6 6 8 3 8 10 12 12 12 12 13 13 13 12 11 11 10 9 9 8 7 6 5 5 5 4 4 4 4 5 3 3 3
12 7 7 5 1 2 5 5 5 7 8 7 2 6 2 6 9 11 14 13 13 14 13 13 13 11 10 10 10 10 9 8 7 6 6 5 5 5 5 4 5 4 3 3
14 12 8 6 6 7 8 7 6 5 5 1 3 5 2 3 6 9 13 15 15 15 14 14 14 13 12 12 12 11 10 9 8 7 6 6 6 6 6 5 5 3 3 3
12 11 11 9 9 6 9 9 7 6 5 3 4 4 2 4 6 8 11 13 15 16 15 15 15 14 14 14 13 12 11 10 9 8 7 6 6 5 4 4 3 3 2 2
10 7 5 5 6 7 6 7 5 8 7 7 2 2 5 6 8 10 13 15 16 16 16 16 15 15 14 14 14 13 12 11 10 9 8 7 6 4 4 4 4 3 2 2
10 8 7 6 6 5 7 4 5 6 6 6 3 3 2 10 12 13 15 16 17 17 17 16 15 15 14 13 13 13 13 12 11 10 8 7 7 6 5 4 3 2 3 2
11 10 7 9 10 9 8 8 8 6 6 8 5 1 4 7 12 14 16 16 17 17 17 16 15 14 14 14 14 13 13 12 11 10 9 8 7 7 6 5 5 5 4 4
9 9 9 9 3 4 8 8 8 8 6 6 7 1 6 6 10 13 15 16 17 17 16 16 16 15 14 14 14 14 13 12 12 11 10 9 8 8 7 7 6 5 5 5
6 7 9 8 7 8 8 9 9 8 7 7 8 1 8 7 10 13 14 15 16 16 17 16 16 15 14 15 14 14 13 13 12 11 11 10 9 8 8 7 6 6 6 5
5 8 10 10 5 5 8 9 10 10 9 8 8 4 5 8 11 13 14 16 17 17 16 16 15 15 14 14 14 14 13 13 12 12 11 11 10 9 8 7 7 7 6 6
6 10 11 11 8 7 8 9 11 13 12 10 8 7 5 7 10 13 15 16 17 18 18 17 16 15 15 14 14 14 13 13 12 12 11 11 10 9 8 8 7 7 7 7
5 8 9 10 9 9 10 10 11 13 12 12 12 10 4 5 8 11 15 17 18 18 19 18 17 17 16 16 15 14 14 13 13 13 12 11 10 10 9 9 8 8 7 7
6 7 9 10 8 9 12 11 12 12 11 11 11 7 2 5 8 11 14 17 19 19 19 19 18 17 16 16 15 15 15 14 13 13 12 11 11 11 10 10 9 8 8 7
6 8 7 8 7 11 5 2 6 9 9 9 9 6 3 5 6 8 12 16 17 18 18 18 17 17 16 16 15 14 14 14 14 13 12 12 11 11 10 10 9 8 7 7
8 8 7 7 10 9 4 2 4 7 7 4 7 6 3 3 6 8 9 12 15 16 16 16 16 16 15 15 15 15 15 14 14 13 13 12 12 11 11 10 9 8 7 7
8 9 9 8 9 7 1 2 1 6 6 1 3 4 2 3 6 4 4 8 11 12 12 12 13 14 15 15 15 15 15 15 14 14 13 12 11 11 11 10 8 7 7 7
9 9 11 10 9 4 4 3 4 6 2 5 3 2 3 3 4 2 1 5 7 10 11 11 12 13 13 14 15 15 14 14 13 12 12 11 11 11 10 9 8 7 7 7
6 6 7 7 8 2 5 1 2 5 5 4 4 3 3 3 2 1 1 4 6 9 10 12 11 11 12 14 15 14 14 13 12 12 12 11 11 10 9 9 8 8 7 8
3 2 2 3 1 4 2 3 5 5 5 5 4 4 3 3 2 1 1 3 5 7 9 10 11 11 11 12 13 13 12 11 11 11 11 10 10 9 8 9 9 8 8 7
2 1 3 3 1 3 2 3 4 5 5 5 5 4 3 3 2 1 1 2 4 6 8 9 11 11 11 11 11 10 10 11 11 11 10 10 9 9 9 7 8 7 7 7
3 2 3 5 3 2 2 5 5 5 5 4 3 2 2 1 0 1 1 2 3 5 6 7 8 9 10 10 10 10 10 10 10 10 9 9 9 8 7 8 6 7 6 5
2 3 4 4 5 5 4 5 6 5 4 4 3 2 2 1 1 2 3 3 4 5 6 7 8 9 9 10 9 9 9 10 9 9 8 7 7 6 6 6 7 7 8 5
Wind_Direction
201 232 235 242 259 296 298 291 292 311 130 238 246 232 188 182 193 194 189 179 174 167 155 153 157 154 152 152 154 152 151 150 157 157 162 156 149 151 140 131 122 133 125 121
213 231 243 266 262 262 266 271 278 182 168 239 236 231 201 195 200 201 186 172 166 158 153 155 156 159 159 157 155 153 158 159 169 156 150 139 135 145 126 124 127 140 138 155
231 234 200 239 242 251 260 272 283 269 189 220 239 219 204 192 198 194 187 177 167 165 165 165 163 165 165 161 161 156 156 161 163 155 153 143 147 162 155 152 149 141 154 162
238 244 240 247 249 259 270 292 269 244 235 226 238 270 189 185 190 192 186 181 174 171 170 170 167 166 165 160 155 152 156 158 157 168 170 170 175 170 143 157 130 136 140 149
222 222 236 251 266 266 310 219 245 246 256 260 221 267 164 173 198 193 187 184 178 176 174 171 168 166 163 158 156 155 153 152 157 167 164 178 175 153 147 147 129 141 124 134
250 238 251 262 253 217 154 183 208 228 245 254 233 264 213 180 203 190 183 181 177 175 172 169 166 165 165 163 163 159 158 156 158 165 163 173 157 155 152 159 151 168 147 143
230 226 214 206 193 178 207 236 245 230 233 285 118 257 305 151 179 185 180 178 175 172 171 169 168 170 170 170 169 166 164 160 160 161 162 160 158 162 166 175 163 185 164 152
224 219 198 204 226 221 221 255 279 297 308 331 177 253 86 141 164 173 176 176 173 174 174 174 174 174 175 173 173 172 170 165 164 163 158 156 165 177 162 166 169 173 175 125
233 224 160 194 222 236 215 240 291 279 280 279 237 184 161 164 173 175 175 176 178 177 177 177 177 177 177 176 177 177 173 168 167 164 158 162 170 165 146 154 187 169 157 159
247 244 188 168 188 212 265 244 223 257 284 282 256 236 174 175 184 179 179 180 179 179 179 178 178 178 179 178 178 178 175 171 169 169 174 168 170 168 168 184 166 163 175 178
236 239 203 189 218 215 195 216 244 261 281 292 301 24 75 175 182 181 181 181 180 181 180 178 177 178 178 178 176 177 176 174 174 176 177 173 177 175 180 184 182 184 191 192
226 243 238 219 199 284 239 244 234 251 254 259 284 26 105 163 176 180 180 179 180 181 180 179 177 177 179 180 180 179 179 179 179 178 178 181 182 184 190 188 189 193 197 203
200 229 232 213 196 201 223 227 234 249 263 258 265 147 121 155 173 179 179 178 180 183 182 180 177 178 182 183 182 180 183 182 181 179 183 184 187 190 196 192 192 199 202 207
243 238 246 248 262 209 212 216 219 230 244 249 255 269 172 178 182 182 182 179 180 184 185 183 181 184 185 184 182 182 184 183 181 183 188 187 191 192 195 196 195 200 206 212
234 236 242 257 263 256 250 234 220 228 251 268 273 269 234 199 192 186 184 183 182 184 187 189 187 186 186 184 184 185 184 182 182 185 190 189 191 190 195 196 200 202 210 217
235 250 243 242 244 249 252 246 236 238 250 259 268 271 260 192 191 189 189 189 189 189 190 191 191 188 188 186 185 183 183 180 182 188 191 189 190 191 195 199 202 205 212 221
220 232 236 240 230 239 243 242 242 241 242 252 257 262 206 195 198 199 196 195 195 193 192 192 192 191 189 188 185 184 182 180 185 191 191 189 191 194 197 201 201 207 213 218
242 238 239 242 229 240 252 271 261 254 251 251 262 274 261 246 228 213 204 201 199 196 194 193 192 191 189 186 184 184 180 181 186 191 192 191 193 195 196 200 204 210 216 221
230 238 242 242 237 242 221 206 250 253 251 259 262 267 269 265 228 201 200 203 202 198 195 192 191 188 184 182 180 179 180 183 187 191 192 192 194 196 197 201 205 209 216 225
204 228 242 236 244 242 185 95 234 251 235 5 275 265 258 241 233 154 160 196 198 198 193 189 185 182 178 177 174 178 183 185 191 193 192 191 193 197 201 202 205 207 215 228
196 209 227 235 242 239 66 97 212 239 35 28 340 298 267 251 301 5 176 190 191 188 184 180 177 177 176 171 173 182 185 189 192 190 188 189 193 198 200 200 204 210 219 229
218 217 220 231 240 227 72 167 292 1 2 336 324 310 293 280 290 319 165 171 178 178 176 175 173 173 171 171 175 183 189 188 185 184 186 189 192 199 195 199 206 211 221 228
242 300 287 274 330 51 26 344 351 335 315 320 320 314 302 287 274 282 171 166 168 171 170 169 167 165 166 173 180 184 184 180 180 182 185 188 192 198 201 202 207 212 216 236
152 262 262 262 200 9 5 353 340 327 314 310 309 304 290 281 269 227 150 146 152 164 162 164 163 162 165 172 179 181 173 173 177 181 184 187 192 198 200 211 215 222 226 234
318 270 276 267 313 330 41 8 350 342 335 326 322 325 307 286 247 145 129 126 145 153 152 157 161 162 162 165 169 170 168 168 175 180 184 190 196 200 203 211 223 232 237 250
291 295 298 323 356 328 343 354 348 341 348 1 13 26 20 19 91 107 108 113 132 142 146 153 157 155 154 158 160 162 162 169 176 180 186 193 199 195 208 215 218 215 235 229